Weather History for PAOH - April, 2014

Change the Weather History Date:

Tuesday, April 8, 2014

  Actual Average Record
Temperature  
Mean Temperature 39 °F -  
Max Temperature 44 °F 43 °F 55 °F (2006)
Min Temperature 34 °F 28 °F 15 °F (2002)
Degree Days  
Heating Degree Days 26    
Moisture  
Dew Point 36 °F    
Average Humidity 94    
Maximum Humidity 100    
Minimum Humidity 70    
Precipitation  
Precipitation 0.00 in - - ()
Sea Level Pressure  
Sea Level Pressure 29.64 in    
Wind  
Wind Speed 4 mph (North)    
Max Wind Speed 9 mph    
Max Gust Speed 21 mph    
Visibility 9 miles    
Events Rain , Snow    
Averages and records for this station are not official NWS values.
T = Trace of Precipitation, MM = Missing Value Source: NWS Daily Summary

Daily Weather History Graph

Daily Weather History Graph

Search for Another Location

Airport or City:

Trip Planner

Search our weather history database for the weather conditions in past years. The results will help you decide how hot, cold, wet, or windy it might be!

Date:

Astronomy

Apr. 08, 2014 Rise Set
Actual Time 6:09 AM AKDT 7:59 PM AKDT
Civil Twilight 5:27 AM AKDT 8:40 PM AKDT
Nautical Twilight 4:35 AM AKDT 9:33 PM AKDT
Astronomical Twilight 3:33 AM AKDT 10:37 PM AKDT
Moon 12:47 PM AKDT (4/8) 3:42 AM AKDT (4/8)
Length of Visible Light 15h 12m
Length of Day
13h 49m
Waxing Gibbous, 64% of the Moon is Illuminated
Apr 8
Waxing Gibbous
Apr 14
Full
Apr 21
Last Quarter
Apr 28
New
May 6
First Quarter

Hourly Weather History & Observations

Time (AKDT) Temp. Windchill Dew Point Humidity Pressure Visibility Wind Dir Wind Speed Gust Speed Precip Events Conditions
12:56 AM 36.0 °F 33.3 °F 36.0 °F 100% 29.46 in 10.0 mi NE 3.5 mph - N/A   Scattered Clouds
1:56 AM 34.9 °F 32.0 °F 34.9 °F 100% 29.47 in 10.0 mi NNE 3.5 mph - N/A   Overcast
2:33 AM 35.6 °F 32.8 °F 35.6 °F 100% 29.47 in 10.0 mi NE 3.5 mph - 0.00 in   Mostly Cloudy
2:56 AM 34.9 °F - 34.9 °F 100% 29.48 in 10.0 mi Calm Calm - 0.00 in   Mostly Cloudy
3:56 AM 35.6 °F - 35.6 °F 100% 29.50 in 10.0 mi Calm Calm - N/A   Overcast
4:56 AM 34.9 °F 32.0 °F 34.9 °F 100% 29.52 in 10.0 mi Variable 3.5 mph - 0.00 in   Mostly Cloudy
5:56 AM 36.0 °F 33.3 °F 36.0 °F 100% 29.54 in 10.0 mi Variable 3.5 mph - N/A   Mostly Cloudy
6:56 AM 36.9 °F 34.3 °F 36.9 °F 100% 29.57 in 10.0 mi Variable 3.5 mph - 0.00 in   Overcast
7:56 AM 39.9 °F 35.8 °F 38.8 °F 96% 29.59 in 10.0 mi WSW 5.8 mph - N/A   Mostly Cloudy
8:56 AM 41.0 °F 38.0 °F 37.9 °F 89% 29.62 in 10.0 mi Variable 4.6 mph - N/A   Mostly Cloudy
9:56 AM 42.8 °F 41.1 °F 33.8 °F 70% 29.63 in 10.0 mi Variable 3.5 mph - N/A   Mostly Cloudy
10:56 AM 41.9 °F 38.2 °F 34.9 °F 76% 29.66 in 6.0 mi Variable 5.8 mph - 0.00 in Rain Light Rain
11:56 AM 43.9 °F 40.5 °F 36.0 °F 74% 29.68 in 10.0 mi Variable 5.8 mph - 0.00 in   Mostly Cloudy
12:56 PM 44.6 °F 43.1 °F 35.6 °F 71% 29.68 in 10.0 mi Variable 3.5 mph - N/A   Mostly Cloudy
1:38 PM 39.2 °F 35.9 °F 37.4 °F 93% 29.69 in 6.0 mi NNW 4.6 mph - 0.00 in Rain Light Rain
1:56 PM 41.0 °F 38.0 °F 37.9 °F 89% 29.70 in 10.0 mi WNW 4.6 mph - 0.00 in Rain Light Rain
2:13 PM 41.0 °F 37.1 °F 37.4 °F 87% 29.69 in 10.0 mi WNW 5.8 mph - 0.00 in   Mostly Cloudy
2:56 PM 41.0 °F 35.2 °F 36.9 °F 85% 29.70 in 6.0 mi SSW 9.2 mph 20.7 mph 0.00 in Rain Light Rain
3:56 PM 39.2 °F 34.2 °F 37.4 °F 93% 29.70 in 6.0 mi Variable 6.9 mph - N/A Rain Light Rain
4:08 PM 39.2 °F 35.0 °F 37.4 °F 93% 29.70 in 4.0 mi Variable 5.8 mph - 0.00 in Rain Light Rain
4:56 PM 36.9 °F 34.3 °F 36.9 °F 100% 29.70 in 5.0 mi Variable 3.5 mph - 0.00 in   Overcast
5:33 PM 37.4 °F 34.9 °F 37.4 °F 100% 29.70 in 10.0 mi Variable 3.5 mph - 0.00 in Rain Light Rain
5:56 PM 37.9 °F 35.5 °F 37.9 °F 100% 29.70 in 10.0 mi North 3.5 mph - 0.00 in   Mostly Cloudy
6:56 PM 39.2 °F 37.0 °F 37.4 °F 93% 29.68 in 10.0 mi Variable 3.5 mph - N/A   Scattered Clouds
7:56 PM 36.9 °F 32.2 °F 36.9 °F 100% 29.68 in 10.0 mi East 5.8 mph - 0.00 in Rain Light Rain
8:27 PM 37.4 °F 34.9 °F 37.4 °F 100% 29.68 in 8.0 mi East 3.5 mph - 0.00 in Rain Light Rain
8:56 PM 36.0 °F 33.3 °F 36.0 °F 100% 29.68 in 7.0 mi NE 3.5 mph - 0.00 in Rain Light Rain
9:33 PM 35.6 °F 29.9 °F 35.6 °F 100% 29.70 in 10.0 mi Variable 6.9 mph - 0.00 in   Mostly Cloudy
9:56 PM 37.4 °F 31.4 °F 37.4 °F 100% 29.70 in 9.0 mi WSW 8.1 mph - N/A Rain Light Rain
10:15 PM 37.4 °F - 35.6 °F 93% 29.70 in 10.0 mi Calm Calm - 0.00 in   Scattered Clouds
10:56 PM 34.9 °F 32.0 °F 34.9 °F 100% 29.71 in 10.0 mi Variable 3.5 mph - 0.00 in   Mostly Cloudy
11:56 PM 34.0 °F 31.0 °F 34.0 °F 100% 29.73 in 4.0 mi North 3.5 mph - 0.00 in Snow Light Snow